Location: Chiroubles
(46.1812°N, 4.6660°E)
Time: 16:32:25
(UTC+00:00)

Transit 4A - Pass Details

Date: 05 December 2020
Orbit: 864 x 980 km, 66.8° (Epoch: 26 January)

Event Time Altitude Azimuth Distance (km) Brightness Sun altitude
Rises 15:59:43 0° 319° (NW) 3,673 11.1 -1.4°
Reaches altitude 10° 16:02:36 10° 309° (NW) 2,710 10.6 -1.8°
Maximum altitude 16:07:57 30° 252° (WSW) 1,643 10.3 -2.6°
Drops below altitude 10° 16:13:10 10° 193° (SSW) 2,633 11.0 -3.4°
Sets 16:15:56 0° 183° (S) 3,552 11.4 -3.8°
